Change the Weather History Date:

Wednesday, September 25, 2013

  Actual Average Record
Temperature  
Mean Temperature 79 °F 72 °F  
Max Temperature 87 °F 84 °F 93 °F (2010)
Min Temperature 70 °F 61 °F 45 °F (2008)
Degree Days  
Heating Degree Days 0 0  
Month to date heating degree days 0 0  
Since 1 July heating degree days 0 0  
Cooling Degree Days 14 8  
Month to date cooling degree days 353 281  
Year to date cooling degree days 2000 1915  
Growing Degree Days 28 (Base 50)    
Moisture  
Dew Point 70 °F    
Average Humidity 75    
Maximum Humidity 93    
Minimum Humidity 57    
Precipitation  
Precipitation T in 0.12 in 1.01 in (1997)
Month to date precipitation 2.21 3.38  
Year to date precipitation 47.82 41.33  
Sea Level Pressure  
Sea Level Pressure 29.82 in    
Wind  
Wind Speed 3 mph (NE)    
Max Wind Speed 10 mph    
Max Gust Speed 13 mph    
Visibility 6 miles    
Events Fog , Rain    
T = Trace of Precipitation, MM = Missing Value Source: NWS Daily Summary

Daily Weather History Graph

Daily Weather History Graph

Search for Another Location

Airport or City:

Trip Planner

Search our weather history database for the weather conditions in past years. The results will help you decide how hot, cold, wet, or windy it might be!

Date:

Astronomy

Sep. 25, 2013 Rise Set
Actual Time 6:34 AM CDT 6:36 PM CDT
Civil Twilight 6:09 AM CDT 7:00 PM CDT
Nautical Twilight 5:41 AM CDT 7:29 PM CDT
Astronomical Twilight 5:13 AM CDT 7:57 PM CDT
Moon 11:00 PM CDT (9/25) 12:20 PM CDT (9/25)
Length of Visible Light 12h 50m
Length of Day
12h 02m
Waning Gibbous, 64% of the Moon is Illuminated
Sep 25
Waning Gibbous
Sep 26
Last Quarter
Oct 4
New
Oct 11
First Quarter
Oct 18
Full

Hourly Weather History & Observations

Time (CDT) Temp. Heat Index Dew Point Humidity Pressure Visibility Wind Dir Wind Speed Gust Speed Precip Events Conditions
12:53 AM 73.9 °F - 70.0 °F 87% 29.81 in 10.0 mi NW 3.5 mph - N/A   Overcast
1:53 AM 73.9 °F - 71.1 °F 91% 29.81 in 9.0 mi NNE 3.5 mph - N/A   Overcast
2:53 AM 73.9 °F - 71.1 °F 91% 29.80 in 7.0 mi Calm Calm - N/A   Overcast
3:51 AM 73.4 °F - 71.6 °F 94% 29.81 in 4.0 mi ENE 3.5 mph - N/A   Overcast
3:53 AM 73.0 °F - 71.1 °F 93% 29.80 in 4.0 mi ENE 4.6 mph - N/A   Overcast
4:22 AM 73.4 °F - 69.8 °F 88% 29.81 in 2.0 mi NE 3.5 mph - 0.00 in   Overcast
4:27 AM 73.4 °F - 69.8 °F 88% 29.81 in 2.0 mi ENE 3.5 mph - 0.00 in   Overcast
4:53 AM 73.0 °F - 70.0 °F 90% 29.80 in 2.5 mi ENE 3.5 mph - 0.00 in   Overcast
5:53 AM 72.0 °F - 70.0 °F 93% 29.79 in 2.5 mi Calm Calm - N/A   Overcast
6:15 AM 71.6 °F - 69.8 °F 94% 29.81 in 3.0 mi NE 3.5 mph - N/A   Overcast
6:53 AM 72.0 °F - 70.0 °F 93% 29.81 in 6.0 mi ENE 3.5 mph - N/A   Overcast
7:53 AM 72.0 °F - 70.0 °F 93% 29.81 in 3.0 mi East 4.6 mph - N/A   Overcast
7:58 AM 71.6 °F - 69.8 °F 94% 29.82 in 2.0 mi East 4.6 mph - N/A   Overcast
8:02 AM 71.6 °F - 69.8 °F 94% 29.83 in 1.5 mi East 3.5 mph - N/A   Overcast
8:07 AM 71.6 °F - 69.8 °F 94% 29.83 in 1.0 mi East 3.5 mph - N/A   Overcast
8:17 AM 71.6 °F - 69.8 °F 94% 29.83 in 0.8 mi Calm Calm - N/A   Overcast
8:32 AM 71.6 °F - 69.8 °F 94% 29.83 in 0.5 mi Calm Calm - N/A Fog Fog
8:53 AM 73.0 °F - 70.0 °F 90% 29.82 in 0.5 mi Calm Calm - N/A Fog Fog
9:28 AM 73.4 °F - 71.6 °F 94% 29.84 in 0.8 mi NE 3.5 mph - 0.01 in   Overcast
9:39 AM 73.4 °F - 71.6 °F 94% 29.84 in 1.2 mi ENE 3.5 mph - 0.01 in   Overcast
9:43 AM 73.4 °F - 71.6 °F 94% 29.84 in 1.8 mi ENE 3.5 mph - 0.01 in   Overcast
9:48 AM 73.4 °F - 71.6 °F 94% 29.84 in 3.0 mi ENE 3.5 mph - 0.01 in   Overcast
9:53 AM 75.0 °F - 71.1 °F 87% 29.83 in 5.0 mi Calm Calm - 0.01 in   Overcast
10:05 AM 75.2 °F - 71.6 °F 89% 29.84 in 6.0 mi North 3.5 mph - N/A   Overcast
10:27 AM 75.2 °F - 71.6 °F 89% 29.84 in 10.0 mi Calm Calm - N/A   Overcast
10:53 AM 78.1 °F - 71.1 °F 79% 29.83 in 10.0 mi Calm Calm - N/A   Overcast
11:23 AM 77.0 °F - 71.6 °F 83% 29.84 in 10.0 mi Calm Calm - N/A   Overcast
11:40 AM 78.8 °F - 71.6 °F 78% 29.83 in 10.0 mi Calm Calm - N/A   Overcast
11:53 AM 79.0 °F - 71.1 °F 77% 29.82 in 10.0 mi SSW 3.5 mph - N/A   Overcast
12:21 PM 80.6 °F 84.6 °F 71.6 °F 74% 29.82 in 10.0 mi Calm Calm - N/A   Overcast
12:34 PM 82.4 °F 87.2 °F 71.6 °F 70% 29.81 in 10.0 mi Calm Calm - N/A   Overcast
12:53 PM 82.9 °F 88.0 °F 72.0 °F 69% 29.79 in 10.0 mi Variable 3.5 mph - N/A   Mostly Cloudy
1:22 PM 84.2 °F 89.6 °F 71.6 °F 66% 29.80 in 10.0 mi Variable 3.5 mph - N/A   Mostly Cloudy
1:53 PM 84.9 °F 90.1 °F 71.1 °F 63% 29.77 in 10.0 mi Calm Calm - N/A   Scattered Clouds
2:06 PM 84.2 °F 88.4 °F 69.8 °F 62% 29.78 in 10.0 mi North 4.6 mph - N/A   Mostly Cloudy
2:36 PM 82.4 °F 86.3 °F 69.8 °F 66% 29.78 in 10.0 mi NNW 5.8 mph - N/A   Overcast
2:53 PM 82.0 °F 85.9 °F 70.0 °F 67% 29.76 in 10.0 mi WNW 4.6 mph - 0.00 in Rain Light Rain
3:53 PM 84.9 °F 89.4 °F 70.0 °F 61% 29.75 in 10.0 mi North 5.8 mph - 0.00 in   Scattered Clouds
4:53 PM 86.0 °F 90.7 °F 70.0 °F 59% 29.76 in 10.0 mi North 8.1 mph - N/A   Scattered Clouds
5:53 PM 82.9 °F 86.5 °F 69.1 °F 63% 29.78 in 10.0 mi NNW 5.8 mph - N/A   Clear
6:53 PM 77.0 °F - 71.1 °F 82% 29.79 in 10.0 mi Calm Calm - N/A   Clear
7:53 PM 75.0 °F - 70.0 °F 84% 29.80 in 10.0 mi Calm Calm - N/A   Clear
8:53 PM 73.0 °F - 69.1 °F 87% 29.82 in 10.0 mi Calm Calm - N/A   Clear
9:47 PM 71.6 °F - 68.0 °F 88% 29.84 in 1.8 mi Calm Calm - N/A   Clear
9:49 PM 71.6 °F - 68.0 °F 88% 29.84 in 1.0 mi Calm Calm - N/A   Clear
9:53 PM 71.1 °F - 68.0 °F 90% 29.83 in 0.8 mi Calm Calm - N/A   Clear
9:58 PM 71.6 °F - 69.8 °F 94% 29.84 in 1.2 mi Calm Calm - N/A   Clear
10:00 PM 71.6 °F - 69.8 °F 94% 29.84 in 3.0 mi Calm Calm - N/A   Clear
10:23 PM 71.6 °F - 68.0 °F 88% 29.84 in 1.8 mi Calm Calm - N/A   Clear
10:29 PM 71.6 °F - 68.0 °F 88% 29.85 in 3.0 mi Calm Calm - N/A   Partly Cloudy
10:53 PM 71.1 °F - 68.0 °F 90% 29.83 in 6.0 mi Calm Calm - N/A   Partly Cloudy
11:05 PM 71.6 °F - 69.8 °F 94% 29.85 in 7.0 mi NE 4.6 mph - N/A   Mostly Cloudy
11:27 PM 71.6 °F - 69.8 °F 94% 29.85 in 5.0 mi ENE 5.8 mph - N/A   Overcast
11:53 PM 72.0 °F - 69.1 °F 91% 29.83 in 4.0 mi ENE 6.9 mph - N/A   Overcast